******** Week 311 almanac for PRN-01 ******** ID: 01 Health: 000 Eccentricity: 0.4205703735E-003 Time of Applicability(s): 61440.0000 Orbital Inclination(rad): 0.9599388118 Rate of Right Ascen(r/s): -0.7988904198E-008 SQRT(A) (m 1/2): 5153.685547 Right Ascen at Week(rad): 0.2997860227E+001 Argument of Perigee(rad): -0.036084501 Mean Anom(rad): 0.1096003057E+001 Af0(s): 0.1888275146E-003 Af1(s/s): 0.1818989404E-010 week: 311 ******** Week 311 almanac for PRN-02 ******** ID: 02 Health: 000 Eccentricity: 0.1615953445E-001 Time of Applicability(s): 61440.0000 Orbital Inclination(rad): 0.9662664825 Rate of Right Ascen(r/s): -0.7840326581E-008 SQRT(A) (m 1/2): 5152.824707 Right Ascen at Week(rad): 0.2833659118E+001 Argument of Perigee(rad): -1.011849456 Mean Anom(rad): 0.2524672469E+001 Af0(s): -0.2126693726E-003 Af1(s/s): 0.1091393642E-010 week: 311 ******** Week 311 almanac for PRN-03 ******** ID: 03 Health: 000 Eccentricity: 0.5889892578E-002 Time of Applicability(s): 61440.0000 Orbital Inclination(rad): 0.9887129358 Rate of Right Ascen(r/s): -0.7840326581E-008 SQRT(A) (m 1/2): 5153.513184 Right Ascen at Week(rad): -0.2309336171E+001 Argument of Perigee(rad): 1.131184997 Mean Anom(rad): -0.1045522132E+001 Af0(s): 0.6790161133E-003 Af1(s/s): 0.3637978807E-011 week: 311 ******** Week 311 almanac for PRN-04 ******** ID: 04 Health: 000 Eccentricity: 0.3263473511E-002 Time of Applicability(s): 61440.0000 Orbital Inclination(rad): 0.9670334729 Rate of Right Ascen(r/s): -0.7748894201E-008 SQRT(A) (m 1/2): 5153.601074 Right Ascen at Week(rad): -0.1233593569E+001 Argument of Perigee(rad): -2.901328793 Mean Anom(rad): 0.1811808827E+001 Af0(s): 0.5445480347E-003 Af1(s/s): 0.3637978807E-011 week: 311 ******** Week 311 almanac for PRN-05 ******** ID: 05 Health: 000 Eccentricity: 0.5633354187E-002 Time of Applicability(s): 61440.0000 Orbital Inclination(rad): 0.9755602489 Rate of Right Ascen(r/s): -0.7977475151E-008 SQRT(A) (m 1/2): 5153.723633 Right Ascen at Week(rad): -0.2364562850E+001 Argument of Perigee(rad): 1.321118483 Mean Anom(rad): 0.2490104721E+001 Af0(s): -0.2050399780E-003 Af1(s/s): 0.0000000000E+000 week: 311 ******** Week 311 almanac for PRN-06 ******** ID: 06 Health: 000 Eccentricity: 0.3497123718E-002 Time of Applicability(s): 61440.0000 Orbital Inclination(rad): 0.9892582180 Rate of Right Ascen(r/s): -0.7668890869E-008 SQRT(A) (m 1/2): 5153.497070 Right Ascen at Week(rad): 0.2938709463E+001 Argument of Perigee(rad): -0.660512428 Mean Anom(rad): 0.1334533325E+000 Af0(s): -0.2632141113E-003 Af1(s/s): -0.2182787284E-010 week: 311 ******** Week 311 almanac for PRN-07 ******** ID: 07 Health: 000 Eccentricity: 0.1938629150E-001 Time of Applicability(s): 61440.0000 Orbital Inclination(rad): 0.9508547693 Rate of Right Ascen(r/s): -0.7806039439E-008 SQRT(A) (m 1/2): 5153.681641 Right Ascen at Week(rad): -0.2225305782E+000 Argument of Perigee(rad): -2.065254211 Mean Anom(rad): -0.6333580471E+000 Af0(s): -0.1716613770E-004 Af1(s/s): 0.0000000000E+000 week: 311 ******** Week 311 almanac for PRN-08 ******** ID: 08 Health: 000 Eccentricity: 0.1056671143E-001 Time of Applicability(s): 61440.0000 Orbital Inclination(rad): 0.9482721688 Rate of Right Ascen(r/s): -0.7954617056E-008 SQRT(A) (m 1/2): 5153.714355 Right Ascen at Week(rad): 0.1832047187E+001 Argument of Perigee(rad): 0.441202985 Mean Anom(rad): 0.2104514157E+001 Af0(s): 0.4997253418E-003 Af1(s/s): 0.3637978807E-011 week: 311 ******** Week 311 almanac for PRN-09 ******** ID: 09 Health: 000 Eccentricity: 0.3006935120E-002 Time of Applicability(s): 61440.0000 Orbital Inclination(rad): 0.9608615971 Rate of Right Ascen(r/s): -0.7840326581E-008 SQRT(A) (m 1/2): 5153.695801 Right Ascen at Week(rad): -0.1295401086E+001 Argument of Perigee(rad): 2.027931964 Mean Anom(rad): 0.2711418152E+001 Af0(s): 0.6084442139E-003 Af1(s/s): 0.1091393642E-010 week: 311 ******** Week 311 almanac for PRN-10 ******** ID: 10 Health: 000 Eccentricity: 0.1010560989E-001 Time of Applicability(s): 61440.0000 Orbital Inclination(rad): 0.9883174563 Rate of Right Ascen(r/s): -0.7840326581E-008 SQRT(A) (m 1/2): 5153.606934 Right Ascen at Week(rad): -0.2311851735E+001 Argument of Perigee(rad): -2.308907360 Mean Anom(rad): -0.2151263121E+001 Af0(s): -0.3643035889E-003 Af1(s/s): -0.1455191523E-010 week: 311 ******** Week 311 almanac for PRN-11 ******** ID: 11 Health: 000 Eccentricity: 0.1688480377E-002 Time of Applicability(s): 61440.0000 Orbital Inclination(rad): 0.9659788611 Rate of Right Ascen(r/s): -0.7908900866E-008 SQRT(A) (m 1/2): 5153.584961 Right Ascen at Week(rad): 0.2965068766E+001 Argument of Perigee(rad): -2.359038871 Mean Anom(rad): 0.1341914858E+001 Af0(s): -0.7371902466E-003 Af1(s/s): 0.3637978807E-011 week: 311 ******** Week 311 almanac for PRN-12 ******** ID: 12 Health: 000 Eccentricity: 0.8989334106E-002 Time of Applicability(s): 61440.0000 Orbital Inclination(rad): 0.9606099284 Rate of Right Ascen(r/s): -0.7874613724E-008 SQRT(A) (m 1/2): 5153.661621 Right Ascen at Week(rad): 0.8935928694E+000 Argument of Perigee(rad): 1.490919970 Mean Anom(rad): -0.1366175049E+001 Af0(s): -0.5769729614E-003 Af1(s/s): -0.3637978807E-011 week: 311 ******** Week 311 almanac for PRN-13 ******** ID: 13 Health: 000 Eccentricity: 0.8957862854E-002 Time of Applicability(s): 61440.0000 Orbital Inclination(rad): 0.9732053487 Rate of Right Ascen(r/s): -0.7668890869E-008 SQRT(A) (m 1/2): 5153.638184 Right Ascen at Week(rad): -0.1125000013E+001 Argument of Perigee(rad): 0.956020944 Mean Anom(rad): 0.1916505263E+001 Af0(s): 0.6990432739E-003 Af1(s/s): 0.0000000000E+000 week: 311 ******** Week 311 almanac for PRN-14 ******** ID: 14 Health: 000 Eccentricity: 0.5499362946E-002 Time of Applicability(s): 61440.0000 Orbital Inclination(rad): 0.9439758242 Rate of Right Ascen(r/s): -0.8046049436E-008 SQRT(A) (m 1/2): 5153.650391 Right Ascen at Week(rad): 0.8444009967E+000 Argument of Perigee(rad): -2.845493540 Mean Anom(rad): -0.1469696282E+001 Af0(s): 0.6189346313E-003 Af1(s/s): 0.7275957614E-011 week: 311 ******** Week 311 almanac for PRN-15 ******** ID: 15 Health: 000 Eccentricity: 0.1615190506E-001 Time of Applicability(s): 61440.0000 Orbital Inclination(rad): 0.9381754593 Rate of Right Ascen(r/s): -0.8091765626E-008 SQRT(A) (m 1/2): 5153.725586 Right Ascen at Week(rad): -0.1430987236E+001 Argument of Perigee(rad): 1.401038657 Mean Anom(rad): 0.1120479713E+001 Af0(s): 0.2775192261E-003 Af1(s/s): 0.3637978807E-011 week: 311 ******** Week 311 almanac for PRN-16 ******** ID: 16 Health: 000 Eccentricity: 0.1451158524E-001 Time of Applicability(s): 61440.0000 Orbital Inclination(rad): 0.9599088512 Rate of Right Ascen(r/s): -0.7874613724E-008 SQRT(A) (m 1/2): 5153.653320 Right Ascen at Week(rad): 0.9110677418E+000 Argument of Perigee(rad): 0.881651338 Mean Anom(rad): -0.3104950886E+001 Af0(s): -0.2384185791E-004 Af1(s/s): 0.7275957614E-011 week: 311 ******** Week 311 almanac for PRN-17 ******** ID: 17 Health: 000 Eccentricity: 0.1310682297E-001 Time of Applicability(s): 61440.0000 Orbital Inclination(rad): 0.9640913457 Rate of Right Ascen(r/s): -0.7783181344E-008 SQRT(A) (m 1/2): 5153.603027 Right Ascen at Week(rad): 0.1931473934E+001 Argument of Perigee(rad): -1.223092018 Mean Anom(rad): 0.2168110319E+001 Af0(s): 0.3643035889E-003 Af1(s/s): -0.1818989404E-010 week: 311 ******** Week 311 almanac for PRN-18 ******** ID: 18 Health: 000 Eccentricity: 0.4890918732E-002 Time of Applicability(s): 61440.0000 Orbital Inclination(rad): 0.9741580946 Rate of Right Ascen(r/s): -0.7828897534E-008 SQRT(A) (m 1/2): 5153.657227 Right Ascen at Week(rad): 0.2938523708E+001 Argument of Perigee(rad): -2.949135739 Mean Anom(rad): 0.1493447892E+000 Af0(s): -0.6437301636E-003 Af1(s/s): 0.3637978807E-011 week: 311 ******** Week 311 almanac for PRN-19 ******** ID: 19 Health: 000 Eccentricity: 0.1027727127E-001 Time of Applicability(s): 61440.0000 Orbital Inclination(rad): 0.9633303474 Rate of Right Ascen(r/s): -0.7783181344E-008 SQRT(A) (m 1/2): 5153.572754 Right Ascen at Week(rad): 0.1975635803E+001 Argument of Perigee(rad): 2.730544975 Mean Anom(rad): -0.2242377685E+001 Af0(s): 0.6113052368E-003 Af1(s/s): 0.3637978807E-011 week: 311 ******** Week 311 almanac for PRN-20 ******** ID: 20 Health: 000 Eccentricity: 0.3602027893E-002 Time of Applicability(s): 61440.0000 Orbital Inclination(rad): 0.9578056197 Rate of Right Ascen(r/s): -0.8160339911E-008 SQRT(A) (m 1/2): 5153.680664 Right Ascen at Week(rad): -0.2498594421E+001 Argument of Perigee(rad): -2.279786068 Mean Anom(rad): 0.4296764076E+000 Af0(s): 0.3652572632E-003 Af1(s/s): 0.0000000000E+000 week: 311 ******** Week 311 almanac for PRN-22 ******** ID: 22 Health: 000 Eccentricity: 0.1323175430E-001 Time of Applicability(s): 61440.0000 Orbital Inclination(rad): 0.9592856715 Rate of Right Ascen(r/s): -0.7886042771E-008 SQRT(A) (m 1/2): 5153.605469 Right Ascen at Week(rad): 0.9143821290E+000 Argument of Perigee(rad): -1.064593153 Mean Anom(rad): 0.2673347640E+001 Af0(s): -0.1010894775E-003 Af1(s/s): 0.0000000000E+000 week: 311 ******** Week 311 almanac for PRN-23 ******** ID: 23 Health: 000 Eccentricity: 0.5059719086E-002 Time of Applicability(s): 61440.0000 Orbital Inclination(rad): 0.9834338847 Rate of Right Ascen(r/s): -0.7886042771E-008 SQRT(A) (m 1/2): 5153.593262 Right Ascen at Week(rad): -0.2342285674E+001 Argument of Perigee(rad): -2.842260796 Mean Anom(rad): -0.9617377937E+000 Af0(s): 0.4463195801E-003 Af1(s/s): 0.7275957614E-011 week: 311 ******** Week 311 almanac for PRN-24 ******** ID: 24 Health: 000 Eccentricity: 0.1654481888E-001 Time of Applicability(s): 61440.0000 Orbital Inclination(rad): 0.9346221367 Rate of Right Ascen(r/s): -0.8000333246E-008 SQRT(A) (m 1/2): 5153.625488 Right Ascen at Week(rad): -0.3248320416E+000 Argument of Perigee(rad): 1.053378166 Mean Anom(rad): 0.2987109253E+000 Af0(s): -0.4339218140E-003 Af1(s/s): 0.7275957614E-011 week: 311 ******** Week 311 almanac for PRN-25 ******** ID: 25 Health: 000 Eccentricity: 0.1236152649E-001 Time of Applicability(s): 61440.0000 Orbital Inclination(rad): 0.9488174511 Rate of Right Ascen(r/s): -0.7988904198E-008 SQRT(A) (m 1/2): 5153.592285 Right Ascen at Week(rad): 0.8036149343E+000 Argument of Perigee(rad): 1.122206940 Mean Anom(rad): -0.1489474747E+001 Af0(s): 0.4920959473E-003 Af1(s/s): 0.0000000000E+000 week: 311 ******** Week 311 almanac for PRN-26 ******** ID: 26 Health: 000 Eccentricity: 0.9888648987E-002 Time of Applicability(s): 61440.0000 Orbital Inclination(rad): 0.9296307070 Rate of Right Ascen(r/s): -0.8194627053E-008 SQRT(A) (m 1/2): 5153.732422 Right Ascen at Week(rad): 0.7355288075E+000 Argument of Perigee(rad): 0.623135503 Mean Anom(rad): -0.2339656634E+001 Af0(s): -0.1487731934E-003 Af1(s/s): -0.1818989404E-010 week: 311 ******** Week 311 almanac for PRN-27 ******** ID: 27 Health: 000 Eccentricity: 0.1349353790E-001 Time of Applicability(s): 61440.0000 Orbital Inclination(rad): 0.9573502192 Rate of Right Ascen(r/s): -0.7874613724E-008 SQRT(A) (m 1/2): 5153.639160 Right Ascen at Week(rad): 0.1861111179E+001 Argument of Perigee(rad): 0.832608145 Mean Anom(rad): 0.2242576548E+001 Af0(s): -0.2956390381E-004 Af1(s/s): 0.0000000000E+000 week: 311 ******** Week 311 almanac for PRN-28 ******** ID: 28 Health: 000 Eccentricity: 0.2779960632E-003 Time of Applicability(s): 61440.0000 Orbital Inclination(rad): 0.9618802562 Rate of Right Ascen(r/s): -0.7691748964E-008 SQRT(A) (m 1/2): 5153.527832 Right Ascen at Week(rad): -0.2521683154E+000 Argument of Perigee(rad): 0.785492165 Mean Anom(rad): -0.1159079029E+001 Af0(s): -0.5846023560E-003 Af1(s/s): -0.7275957614E-011 week: 311 ******** Week 311 almanac for PRN-29 ******** ID: 29 Health: 000 Eccentricity: 0.3085613251E-002 Time of Applicability(s): 61440.0000 Orbital Inclination(rad): 0.9666379935 Rate of Right Ascen(r/s): -0.7737465154E-008 SQRT(A) (m 1/2): 5153.633789 Right Ascen at Week(rad): 0.1947281876E+001 Argument of Perigee(rad): 2.614115983 Mean Anom(rad): 0.2140412903E+001 Af0(s): -0.5254745483E-003 Af1(s/s): 0.3637978807E-011 week: 311 ******** Week 311 almanac for PRN-30 ******** ID: 30 Health: 000 Eccentricity: 0.7544517517E-002 Time of Applicability(s): 61440.0000 Orbital Inclination(rad): 0.9360362752 Rate of Right Ascen(r/s): -0.7954617056E-008 SQRT(A) (m 1/2): 5153.655762 Right Ascen at Week(rad): -0.2264063514E+000 Argument of Perigee(rad): -2.407142052 Mean Anom(rad): -0.8244648641E+000 Af0(s): -0.1878738403E-003 Af1(s/s): 0.1091393642E-010 week: 311 ******** Week 311 almanac for PRN-31 ******** ID: 31 Health: 000 Eccentricity: 0.1059865952E-001 Time of Applicability(s): 61440.0000 Orbital Inclination(rad): 0.9547496424 Rate of Right Ascen(r/s): -0.7771752296E-008 SQRT(A) (m 1/2): 5153.583984 Right Ascen at Week(rad): -0.1997852683E+000 Argument of Perigee(rad): 0.808366679 Mean Anom(rad): -0.1604014726E+001 Af0(s): -0.2126693726E-003 Af1(s/s): 0.0000000000E+000 week: 311 ******** Week 311 almanac for PRN-32 ******** ID: 32 Health: 000 Eccentricity: 0.8541107178E-002 Time of Applicability(s): 61440.0000 Orbital Inclination(rad): 0.9641153141 Rate of Right Ascen(r/s): -0.7806039439E-008 SQRT(A) (m 1/2): 5153.539062 Right Ascen at Week(rad): -0.1279618610E+001 Argument of Perigee(rad): -2.074930349 Mean Anom(rad): 0.2819853666E+001 Af0(s): -0.4949569702E-003 Af1(s/s): 0.7275957614E-011 week: 311